[[{"header":{"parameterUnit":"m.s-1","parameterCategory":2,"la1":30.2992,"la2":30.254,"lo1":-89.0895,"lo2":-89.0443,"dy":0.0025,"dx":0.0025,"nx":19,"ny":19,"refTime":"2026-03-20T21:00:00:Z","depth":"0","parameterNumber":2,"parameterNumberName":"U-component_of_CURRENTS"},"data":[0,0,0,0.1137,0.1141,0.1228,0.1227,0.1337,0.1339,0,0,0,0,0,0,0,0,0,0,0,0.1042,0.1043,0.1136,0.1142,0.1228,0.1227,0.1337,0.1339,0,0,0,0,0,0,0,0,0,0,0,0.1042,0.1043,0.1044,0.1142,0.1228,0.1227,0.1336,0.125,0,0,0,0,0,0,0,0,0,0,0.1157,0.1068,0.1043,0.1044,0.1144,0.1228,0.1227,0.1245,0.1256,0.1325,0,0.1355,0,0.1421,0.1354,0.1355,0,0,0,0.1054,0.1058,0.1147,0.1045,0.1146,0.1229,0.1164,0.125,0.1262,0.1339,0.1357,0.1363,0.1423,0.1356,0.1357,0.152,0.152,0,0,0.1049,0.0994,0.1139,0.1155,0.1194,0.1162,0.1168,0.1256,0.1243,0.1358,0.1367,0.1425,0.1357,0.1359,0.152,0.152,0,0,0,0.1095,0.099,0.1071,0.1148,0.1205,0.1167,0.1173,0.1235,0.1282,0.1369,0.1426,0.1359,0.1361,0.152,0.152,0.1385,0,0,0,0.1087,0.1026,0.1069,0.1028,0.1204,0.122,0.115,0.1272,0.1288,0.1426,0.1359,0.1364,0.152,0.152,0.1388,0.1366,0,0,0,0.1034,0.1019,0.105,0.1026,0.1119,0.122,0.1263,0.1274,0.1329,0.1355,0.1364,0.152,0.152,0.1392,0.1371,0.1333,0,0,0,0.0943,0.0969,0.1047,0.1079,0.112,0.1181,0.1263,0.1279,0.1289,0.136,0.152,0.152,0.1393,0.1374,0.1336,0.1292,0.1275,0,0,0.0929,0.0964,0.0986,0.1063,0.1147,0.1161,0.1174,0.1228,0.1323,0.1476,0.1479,0.1387,0.1371,0.1333,0.1301,0.1283,0,0,0,0.0952,0.0984,0.1014,0.1084,0.1144,0.1161,0.1206,0.1242,0.1319,0.1358,0.1429,0.1425,0.1403,0.1385,0.1371,0.1496,0.152,0.152,0.152,0.0922,0.0973,0.1004,0.1073,0.1104,0.1151,0.1143,0.1215,0.1286,0.1305,0.1342,0.1268,0.1247,0.1236,0.1365,0.1358,0.1358,0.1357,0.1357,0.0939,0.0951,0.1005,0.105,0.1088,0.1107,0.1155,0.1165,0.1199,0.1274,0.1258,0.1281,0.1212,0.1356,0.1349,0.135,0.1351,0.1352,0.1353,0.09,0.0903,0.0924,0.0963,0.1019,0.1079,0.1101,0.1113,0.1139,0.1097,0.1114,0.1116,0.122,0.1084,0.1083,0.1083,0.1083,0.1083,0.1082,0.0835,0.085,0.0841,0.0886,0.0922,0.0983,0.1044,0.1044,0.1012,0.1006,0.1006,0.1222,0.1186,0.1171,0.1078,0.1079,0.1079,0.108,0.108,0.0782,0.0756,0.0745,0.0749,0.0826,0.082,0.0904,0.0894,0.0884,0.0845,0.1058,0.0962,0.1014,0.1027,0.1011,0.0882,0.0882,0.0882,0.0882,0.0733,0.0724,0.0697,0.0686,0.0704,0.0754,0.0701,0.075,0.0881,0.098,0.1048,0.1101,0.1103,0.1166,0.1176,0.1167,0.1081,0.1081,0.1082,0.0713,0.0706,0.0664,0.0643,0.0667,0.066,0.0603,0.068,0.095,0.1107,0.1229,0.122,0.132,0.1314,0.1434,0.1438,0.1431,0,0]},{"header":{"parameterUnit":"m.s-1","parameterCategory":2,"la1":30.2992,"la2":30.254,"lo1":-89.0895,"lo2":-89.0443,"dy":0.0025,"dx":0.0025,"nx":19,"ny":19,"refTime":"2026-03-20T21:00:00:Z","depth":"0","parameterNumber":3,"parameterNumberName":"V-component_of_CURRENTS"},"data":[0,0,0,0.0155,0.0158,0.0186,0.0185,0.023,0.0231,0,0,0,0,0,0,0,0,0,0,0,0.0093,0.0093,0.0155,0.0158,0.0186,0.0185,0.0229,0.0231,0,0,0,0,0,0,0,0,0,0,0,0.0092,0.0093,0.0094,0.0158,0.0186,0.0185,0.0229,0.019,0,0,0,0,0,0,0,0,0,0,0.0154,0.0154,0.0093,0.0094,0.0159,0.0186,0.0185,0.0187,0.0192,0.0241,0,0.0254,0,0.03,0.024,0.0241,0,0,0,0.009,0.015,0.0147,0.0094,0.016,0.0187,0.0154,0.0189,0.0195,0.0248,0.0255,0.0259,0.0301,0.0241,0.0242,0.0365,0.0366,0,0,0.0089,0.0107,0.0143,0.0151,0.0183,0.0154,0.0156,0.0192,0.0213,0.0256,0.0261,0.0302,0.0242,0.0243,0.0365,0.0365,0,0,0,0.013,0.0107,0.01,0.0148,0.0184,0.0156,0.0159,0.0209,0.0205,0.0262,0.0302,0.0243,0.0245,0.0365,0.0365,0.04,0,0,0,0.0126,0.0136,0.01,0.0113,0.0184,0.0211,0.0176,0.0199,0.0207,0.0302,0.0243,0.0246,0.0364,0.0365,0.0399,0.0424,0,0,0,0.0089,0.0135,0.0137,0.0113,0.0161,0.0211,0.0205,0.02,0.0237,0.0241,0.0246,0.0364,0.0365,0.0397,0.0421,0.0416,0,0,0,0.0103,0.0145,0.0137,0.0193,0.0162,0.0214,0.0204,0.0235,0.0239,0.0244,0.0364,0.0365,0.0397,0.042,0.0414,0.0429,0.0436,0,0,0.0162,0.0153,0.018,0.0176,0.0231,0.0204,0.0279,0.0274,0.0266,0.0341,0.0343,0.0399,0.0421,0.0416,0.047,0.0476,0,0,0,0.0203,0.0204,0.022,0.0254,0.0289,0.032,0.033,0.0329,0.0341,0.029,0.0404,0.0417,0.0412,0.0418,0.0423,0.0473,0.0368,0.0368,0.0368,0.0224,0.0241,0.0285,0.0304,0.035,0.0404,0.0413,0.0418,0.0408,0.0407,0.0449,0.0475,0.0484,0.0487,0.054,0.0447,0.0447,0.0447,0.0447,0.0252,0.0283,0.0306,0.0348,0.0402,0.0468,0.0519,0.0503,0.0516,0.0489,0.0481,0.046,0.0495,0.0548,0.0449,0.0449,0.0448,0.0448,0.0448,0.0262,0.0291,0.0293,0.0352,0.0426,0.0495,0.0567,0.058,0.055,0.0556,0.0526,0.0525,0.0567,0.0532,0.0532,0.0532,0.0532,0.0532,0.0532,0.028,0.0295,0.0319,0.0357,0.0404,0.0483,0.0577,0.0596,0.0593,0.0574,0.0573,0.0593,0.0501,0.0492,0.0534,0.0533,0.0533,0.0533,0.0533,0.0292,0.0297,0.0343,0.0367,0.0449,0.052,0.0576,0.0631,0.063,0.0622,0.0658,0.0575,0.0561,0.0556,0.0549,0.0603,0.0603,0.0603,0.0603,0.0289,0.0298,0.0358,0.0414,0.0484,0.0547,0.0633,0.0689,0.0715,0.0736,0.0716,0.0715,0.071,0.0704,0.0696,0.0691,0.078,0.078,0.0781,0.0251,0.0298,0.0333,0.0418,0.0501,0.058,0.0673,0.0824,0.0863,0.0793,0.0787,0.0779,0.0781,0.0769,0.0759,0.0744,0.0734,0,0]}],[{"header":{"parameterUnit":"m.s-1","parameterCategory":2,"la1":30.2992,"la2":30.254,"lo1":-89.0895,"lo2":-89.0443,"dy":0.0025,"dx":0.0025,"nx":19,"ny":19,"refTime":"2026-03-20T21:00:00:Z","depth":"2","parameterNumber":2,"parameterNumberName":"U-component_of_CURRENTS"},"data":[0,0,0,0.086,0.086,0.0901,0.0902,0.1085,0.1087,0,0,0,0,0,0,0,0,0,0,0,0.0868,0.0869,0.086,0.086,0.0901,0.0902,0.1085,0.1087,0,0,0,0,0,0,0,0,0,0,0,0.0868,0.0869,0.0869,0.086,0.0901,0.0902,0.1085,0.1026,0,0,0,0,0,0,0,0,0,0,0.0971,0.0869,0.0868,0.0869,0.086,0.0901,0.0902,0.1021,0.1029,0.1098,0,0.1107,0,0.1087,0.1101,0.1101,0,0,0,0.0879,0.0861,0.0951,0.0869,0.086,0.0901,0.0888,0.1025,0.1034,0.1109,0.1109,0.1114,0.109,0.1102,0.1103,0.1282,0.1283,0,0,0.0877,0.0805,0.0944,0.0956,0.0878,0.0887,0.0889,0.1029,0.0998,0.1109,0.1117,0.1093,0.1103,0.1105,0.1282,0.1282,0,0,0,0.0857,0.0802,0.0884,0.0951,0.0939,0.0887,0.089,0.0991,0.1041,0.1119,0.1095,0.1104,0.1107,0.1281,0.1282,0.117,0,0,0,0.0857,0.0791,0.0883,0.083,0.0936,0.0924,0.0848,0.1032,0.1045,0.1094,0.1104,0.1109,0.1281,0.1282,0.1171,0.114,0,0,0,0.0865,0.0788,0.0814,0.0828,0.0843,0.0922,0.0975,0.1034,0.1031,0.1101,0.1109,0.128,0.1281,0.1173,0.1143,0.1111,0,0,0,0.0765,0.078,0.0811,0.0811,0.0843,0.0908,0.0973,0.0984,0.1031,0.1105,0.1281,0.1282,0.1174,0.1145,0.1113,0.104,0.1024,0,0,0.0744,0.0773,0.0786,0.0817,0.0839,0.0904,0.0915,0.0987,0.1084,0.1247,0.125,0.1171,0.1143,0.1111,0.1103,0.1084,0,0,0,0.0755,0.0778,0.0782,0.0799,0.085,0.0896,0.095,0.0993,0.1105,0.1115,0.1225,0.1213,0.1195,0.1158,0.1144,0.1287,0.1287,0.1287,0.1287,0.0699,0.0747,0.0754,0.0827,0.0856,0.0884,0.0919,0.1018,0.1083,0.1118,0.116,0.1116,0.1077,0.1066,0.1198,0.1197,0.1197,0.1197,0.1196,0.0733,0.0746,0.0785,0.0823,0.0866,0.0921,0.0984,0.0994,0.1044,0.1121,0.1108,0.109,0.1043,0.1189,0.119,0.1191,0.1192,0.1193,0.1193,0.0681,0.0696,0.0728,0.078,0.0852,0.0932,0.0962,0.0979,0.1007,0.0966,0.096,0.0961,0.1025,0.0961,0.0961,0.096,0.096,0.096,0.096,0.0626,0.0653,0.0661,0.0732,0.0782,0.0862,0.0932,0.093,0.0881,0.0862,0.0862,0.1038,0.1046,0.1016,0.0955,0.0956,0.0957,0.0957,0.0957,0.0581,0.0564,0.0578,0.0595,0.0708,0.0705,0.0791,0.0768,0.0752,0.0699,0.0804,0.081,0.0845,0.0857,0.0826,0.072,0.072,0.072,0.0719,0.0541,0.0535,0.055,0.0553,0.0584,0.0641,0.0567,0.0564,0.0586,0.0587,0.0593,0.0614,0.0626,0.0653,0.067,0.0637,0.0481,0.0481,0.0481,0.0544,0.0546,0.0525,0.0517,0.0555,0.0542,0.0453,0.0429,0.0445,0.0474,0.0574,0.0699,0.0749,0.0761,0.0822,0.0841,0.0797,0,0]},{"header":{"parameterUnit":"m.s-1","parameterCategory":2,"la1":30.2992,"la2":30.254,"lo1":-89.0895,"lo2":-89.0443,"dy":0.0025,"dx":0.0025,"nx":19,"ny":19,"refTime":"2026-03-20T21:00:00:Z","depth":"2","parameterNumber":3,"parameterNumberName":"V-component_of_CURRENTS"},"data":[0,0,0,0.0065,0.0067,0.0093,0.0092,0.014,0.0141,0,0,0,0,0,0,0,0,0,0,0,0.0025,0.0026,0.0065,0.0067,0.0093,0.0092,0.014,0.0141,0,0,0,0,0,0,0,0,0,0,0,0.0025,0.0026,0.0026,0.0068,0.0093,0.0092,0.0139,0.0105,0,0,0,0,0,0,0,0,0,0,0.0074,0.008,0.0026,0.0026,0.0068,0.0093,0.0092,0.0103,0.0107,0.0148,0,0.0163,0,0.0191,0.0149,0.0149,0,0,0,0.0019,0.0076,0.0071,0.0027,0.0069,0.0093,0.0068,0.0105,0.011,0.0154,0.0164,0.0167,0.0192,0.015,0.015,0.0273,0.0273,0,0,0.0018,0.0039,0.0067,0.0075,0.0093,0.0067,0.0069,0.0107,0.0129,0.0165,0.0169,0.0193,0.0151,0.0151,0.0272,0.0273,0,0,0,0.0046,0.0039,0.0031,0.0072,0.0097,0.0069,0.0071,0.0125,0.012,0.017,0.0193,0.0151,0.0153,0.0272,0.0272,0.0313,0,0,0,0.0043,0.0059,0.0031,0.0045,0.0096,0.0121,0.0089,0.0115,0.0123,0.0193,0.0151,0.0154,0.0271,0.0272,0.031,0.0332,0,0,0,0.0021,0.0058,0.0061,0.0046,0.0081,0.012,0.0115,0.0116,0.014,0.0149,0.0154,0.0271,0.0272,0.0308,0.0329,0.0326,0,0,0,0.0037,0.0078,0.0062,0.0116,0.0081,0.0128,0.0114,0.0136,0.0143,0.0152,0.0271,0.0272,0.0308,0.0327,0.0324,0.0301,0.0307,0,0,0.0095,0.0086,0.0112,0.01,0.0122,0.012,0.0192,0.0182,0.0176,0.0251,0.0253,0.0311,0.0329,0.0325,0.0362,0.0366,0,0,0,0.0134,0.0132,0.0137,0.0155,0.0183,0.0223,0.0236,0.0238,0.0257,0.0198,0.0322,0.0332,0.0328,0.0311,0.0314,0.0277,0.0277,0.0277,0.0277,0.0151,0.0159,0.0192,0.0205,0.0249,0.0297,0.032,0.0337,0.0324,0.0329,0.0372,0.0409,0.0394,0.0395,0.0378,0.0378,0.0378,0.0378,0.0379,0.0178,0.0207,0.0221,0.0253,0.0305,0.0382,0.044,0.0427,0.0447,0.0422,0.0415,0.0365,0.0401,0.0382,0.0381,0.0381,0.038,0.038,0.038,0.0187,0.0214,0.022,0.0273,0.0349,0.0425,0.0501,0.0516,0.0487,0.0493,0.0439,0.0437,0.0417,0.0473,0.0473,0.0473,0.0473,0.0473,0.0473,0.0207,0.0222,0.0249,0.0289,0.0339,0.0424,0.052,0.0538,0.0517,0.0486,0.0485,0.044,0.0437,0.0422,0.0475,0.0474,0.0474,0.0474,0.0474,0.0218,0.0226,0.0275,0.0303,0.0393,0.0456,0.0514,0.0547,0.0543,0.0518,0.0473,0.0472,0.0451,0.0447,0.0433,0.0485,0.0485,0.0485,0.0485,0.0218,0.0227,0.0294,0.0355,0.0426,0.0481,0.0526,0.0498,0.0463,0.0408,0.0411,0.0386,0.0388,0.0361,0.0359,0.0342,0.037,0.0369,0.0369,0.0189,0.0234,0.0276,0.0362,0.0447,0.0505,0.0528,0.0485,0.0387,0.0363,0.037,0.0481,0.0452,0.0452,0.0415,0.0411,0.0385,0,0]}],[{"header":{"parameterUnit":"m.s-1","parameterCategory":2,"la1":30.2992,"la2":30.254,"lo1":-89.0895,"lo2":-89.0443,"dy":0.0025,"dx":0.0025,"nx":19,"ny":19,"refTime":"2026-03-20T21:00:00:Z","depth":"4","parameterNumber":2,"parameterNumberName":"U-component_of_CURRENTS"},"data":[0,0,0,-0.0769,-0.0771,-0.088,-0.0881,-0.1253,-0.1256,0,0,0,0,0,0,0,0,0,0,0,-0.0759,-0.076,-0.0769,-0.0771,-0.088,-0.0881,-0.1252,-0.1256,0,0,0,0,0,0,0,0,0,0,0,-0.0759,-0.076,-0.0761,-0.0771,-0.088,-0.0881,-0.1251,-0.1118,0,0,0,0,0,0,0,0,0,0,-0.0985,-0.0934,-0.0759,-0.0761,-0.0771,-0.088,-0.0881,-0.1109,-0.1126,-0.1261,0,-0.1277,0,-0.1259,-0.1284,-0.1285,0,0,0,-0.0799,-0.0919,-0.0939,-0.0761,-0.0772,-0.0879,-0.0839,-0.1117,-0.1137,-0.1284,-0.1281,-0.1293,-0.1265,-0.1286,-0.1288,-0.1651,-0.1652,0,0,-0.0793,-0.0797,-0.0925,-0.0951,-0.0807,-0.0835,-0.0842,-0.1126,-0.1162,-0.1282,-0.13,-0.1271,-0.1289,-0.1292,-0.1651,-0.1652,0,0,0,-0.0757,-0.0793,-0.0803,-0.0938,-0.093,-0.0837,-0.0845,-0.1149,-0.1149,-0.1304,-0.1275,-0.1292,-0.1297,-0.165,-0.1651,-0.1577,0,0,0,-0.0754,-0.0769,-0.08,-0.0806,-0.0923,-0.1008,-0.0862,-0.113,-0.116,-0.1273,-0.1292,-0.1301,-0.1649,-0.165,-0.1576,-0.157,0,0,0,-0.0753,-0.0769,-0.078,-0.0806,-0.0835,-0.1001,-0.1018,-0.1135,-0.1144,-0.1286,-0.1302,-0.1648,-0.165,-0.1576,-0.157,-0.1424,0,0,0,-0.0756,-0.0766,-0.0781,-0.0818,-0.0833,-0.0923,-0.1016,-0.1181,-0.1312,-0.1294,-0.1649,-0.1651,-0.1576,-0.157,-0.1426,-0.118,0,0,0,-0.0756,-0.0767,-0.0791,-0.0805,-0.0835,-0.0909,-0.1057,-0.1305,-0.1382,-0.1575,-0.1582,-0.1576,-0.157,-0.1424,-0.131,0,0,0,0,-0.0784,-0.0809,-0.0826,-0.0859,-0.0911,-0.1029,-0.1212,-0.1321,-0.1504,-0.1457,-0.1641,-0.1641,-0.1548,-0.1418,-0.1661,-0.1661,-0.1661,-0.166,-0.166,-0.0806,-0.0824,-0.0858,-0.0901,-0.0981,-0.118,-0.1316,-0.1504,-0.1555,-0.163,-0.1626,-0.1539,-0.1408,-0.1668,-0.1667,-0.1667,-0.1667,-0.1667,-0.1667,-0.0791,-0.0809,-0.0885,-0.094,-0.1067,-0.1255,-0.1461,-0.1552,-0.1598,-0.1656,-0.1564,-0.1413,-0.1661,-0.1662,-0.1663,-0.1664,-0.1664,-0.1664,-0.1665,-0.0767,-0.0772,-0.0843,-0.0932,-0.116,-0.1355,-0.1449,-0.1567,-0.1557,-0.151,-0.1236,-0.147,-0.1415,-0.1368,-0.1367,-0.1366,-0.1366,-0.1365,-0.1365,-0.0696,-0.0746,-0.0827,-0.0963,-0.1089,-0.1243,-0.1408,-0.1337,-0.1305,-0.1153,-0.1413,-0.1437,-0.1447,-0.1399,-0.1355,-0.1357,-0.1358,-0.1359,-0.136,-0.0635,-0.069,-0.0762,-0.0849,-0.1008,-0.106,-0.1195,-0.1004,-0.0839,-0.0678,-0.0945,-0.0968,-0.095,-0.0971,-0.0906,-0.0713,-0.071,-0.0706,0,-0.0604,-0.0626,-0.0715,-0.0745,-0.0747,-0.0889,-0.0637,-0.0581,-0.0579,-0.0575,-0.0792,-0.1102,-0.1116,-0.1111,-0.1123,-0.1054,0,0,0,-0.0565,-0.0594,-0.0607,-0.0616,-0.0613,-0.0478,-0.0556,-0.0466,-0.0641,-0.0413,-0.0619,-0.0642,-0.1037,-0.1325,-0.1352,-0.1364,-0.1288,0,0]},{"header":{"parameterUnit":"m.s-1","parameterCategory":2,"la1":30.2992,"la2":30.254,"lo1":-89.0895,"lo2":-89.0443,"dy":0.0025,"dx":0.0025,"nx":19,"ny":19,"refTime":"2026-03-20T21:00:00:Z","depth":"4","parameterNumber":3,"parameterNumberName":"V-component_of_CURRENTS"},"data":[0,0,0,0.0047,0.0047,0.0025,0.0024,0.0082,0.0082,0,0,0,0,0,0,0,0,0,0,0,0.0043,0.0042,0.0047,0.0047,0.0025,0.0024,0.0081,0.0082,0,0,0,0,0,0,0,0,0,0,0,0.0043,0.0042,0.0042,0.0047,0.0025,0.0024,0.0081,0.0075,0,0,0,0,0,0,0,0,0,0,0.0086,0.0069,0.0042,0.0042,0.0047,0.0025,0.0024,0.0074,0.0076,0.0118,0,0.0105,0,0.0106,0.0089,0.0089,0,0,0,0.0042,0.0068,0.0067,0.0042,0.0047,0.0025,0.0033,0.0074,0.0077,0.0121,0.0106,0.0108,0.0107,0.0089,0.009,0.0178,0.0178,0,0,0.0043,0.0038,0.0065,0.0068,0.0032,0.0034,0.0033,0.0075,0.0072,0.0106,0.0109,0.0108,0.009,0.0091,0.0178,0.0178,0,0,0,0.005,0.0039,0.0035,0.0066,0.0061,0.0033,0.0032,0.007,0.0069,0.011,0.0108,0.009,0.0092,0.0177,0.0178,0.0118,0,0,0,0.005,0.0044,0.0036,0.0033,0.0059,0.0054,0.0026,0.0066,0.0071,0.0108,0.009,0.0092,0.0177,0.0178,0.0119,0.0088,0,0,0,0.0045,0.0044,0.0039,0.0033,0.0027,0.0053,0.0054,0.0066,0.0071,0.0089,0.0093,0.0177,0.0178,0.0119,0.009,0.0071,0,0,0,0.0046,0.0012,0.0038,-0.0002,0.0028,-0.0019,0.0053,0.0054,0.0065,0.0091,0.0177,0.0178,0.012,0.0091,0.0073,0.0058,0,0,0,0.0,0.0006,-0.0019,0.0004,-0.0055,-0.0016,-0.0048,0.0023,0.0095,0.0168,0.0169,0.0118,0.009,0.0072,0.0096,0,0,0,0,-0.0035,-0.0053,-0.0067,-0.0092,-0.0109,-0.0115,-0.0062,-0.0004,0.0091,0.0106,0.0148,0.0133,0.0122,0.012,0.0181,0.0181,0.0181,0.0181,0.0181,-0.0066,-0.009,-0.0152,-0.0184,-0.0209,-0.0165,-0.0136,-0.0037,0.0035,0.0094,0.0106,0.0081,0.0079,0.0135,0.0135,0.0135,0.0135,0.0135,0.0134,-0.0116,-0.0166,-0.0204,-0.0272,-0.0285,-0.0288,-0.0182,-0.0092,0.0008,0.0075,0.0069,0.0085,0.0129,0.013,0.0131,0.0132,0.0132,0.0132,0.0133,-0.0129,-0.0174,-0.0204,-0.0303,-0.0342,-0.0315,-0.0251,-0.0131,-0.0034,-0.0026,0.0003,0.0047,0.0026,-0.0012,-0.0013,-0.0013,-0.0013,-0.0013,-0.0013,-0.0132,-0.0177,-0.0252,-0.0338,-0.0392,-0.0374,-0.0267,-0.0222,-0.0133,-0.0062,-0.0027,0.0032,0.0037,0.002,-0.0017,-0.0016,-0.0016,-0.0015,-0.0015,-0.0183,-0.0181,-0.0277,-0.0347,-0.0451,-0.042,-0.0356,-0.0259,-0.0233,-0.0213,-0.0081,-0.0077,-0.0057,-0.005,-0.0069,-0.0133,-0.0134,-0.0134,0,-0.0206,-0.0218,-0.0307,-0.0386,-0.0452,-0.0437,-0.0382,-0.0342,-0.0245,-0.0191,-0.0255,-0.0106,-0.0101,-0.0079,-0.0073,-0.0098,0,0,0,-0.0239,-0.0252,-0.0309,-0.0371,-0.0437,-0.0381,-0.0346,-0.0293,-0.025,-0.0269,-0.0143,-0.0141,-0.019,-0.0027,0.0015,0.0021,-0.0005,0,0]}]]